period_start,C,m1,H,J0,J1,J2,J3,J4,J5,JA,JB,JC,JD,JJ,JK,JN,#
2015-12-12 00:00:02,0.13,2.85,0.00,21.07,25.42,29.14,14.60,50.23,1008.32,2040.03,2539.97,2472.12,2763.16,600.25,595.27,11.98,0000 0000 0000 0000 000000
2015-12-12 00:05:04,0.15,2.85,0.00,21.07,25.42,29.17,14.60,50.27,1008.33,2040.07,2537.95,2470.60,2761.46,599.84,594.84,12.03,0000 0000 0000 0000 000000
2015-12-12 00:10:05,0.13,2.86,0.00,21.08,25.43,29.19,14.58,50.29,1008.32,2040.02,2535.84,2469.11,2759.70,600.30,595.38,12.08,0000 0000 0000 0000 000000
2015-12-12 00:15:06,0.15,2.87,0.00,21.14,25.45,29.16,14.59,50.32,1008.33,2040.01,2533.67,2467.57,2757.94,600.22,595.15,12.13,0000 0000 0000 0000 000000
2015-12-12 00:20:08,0.17,2.88,0.00,21.14,25.45,29.20,14.53,50.37,1008.34,2040.00,2531.28,2465.77,2755.91,599.73,594.58,12.18,0000 0000 0000 0000 000000
2015-12-12 00:25:09,0.13,2.89,0.00,21.12,25.47,29.22,14.62,50.38,1008.36,2040.00,2529.04,2464.31,2754.23,600.12,595.15,12.23,0000 0000 0000 0000 000000
2015-12-12 00:30:10,0.14,2.89,0.00,21.12,25.47,29.23,14.61,50.42,1008.33,2040.00,2527.14,2462.84,2752.60,600.21,595.17,12.28,0000 0000 0000 0000 000000
2015-12-12 00:35:12,0.12,2.90,0.00,21.14,25.50,29.23,14.60,50.46,1008.32,2040.00,2525.09,2461.48,2751.12,600.02,595.05,12.33,0000 0000 0000 0000 000000
2015-12-12 00:40:13,0.16,2.91,0.00,21.13,25.50,29.24,14.60,50.50,1008.32,2039.99,2522.93,2459.83,2749.34,599.92,594.90,12.38,0000 0000 0000 0000 000000
2015-12-12 00:45:14,0.15,2.91,0.00,21.14,25.52,29.25,14.59,50.55,1008.31,2039.99,2520.74,2458.13,2747.44,599.91,594.93,12.43,0000 0000 0000 0000 000000
2015-12-12 00:50:16,0.14,2.92,0.00,21.14,25.52,29.29,14.61,50.30,1008.31,2039.99,2518.75,2456.71,2745.77,599.85,594.75,12.48,0000 0000 0000 0000 000000
2015-12-12 00:55:17,0.13,2.93,0.00,21.16,25.55,29.26,14.60,50.13,1008.31,2039.98,2516.68,2455.36,2744.14,600.01,594.91,12.53,0000 0000 0000 0000 000000
2015-12-12 01:00:19,0.14,2.94,0.00,21.17,25.55,29.26,14.61,50.23,1008.32,2039.95,2514.80,2453.79,2742.41,599.96,594.98,12.58,0000 0000 0000 0000 000000
2015-12-12 01:05:20,0.13,2.94,0.00,21.21,25.57,29.27,14.62,50.31,1008.35,2039.88,2512.90,2452.30,2740.68,600.01,594.85,12.63,0000 0000 0000 0000 000000
2015-12-12 01:10:21,0.12,2.95,0.00,21.20,25.57,29.31,14.51,50.22,1008.34,2039.64,2510.91,2450.53,2738.68,599.91,594.68,12.68,0000 0000 0000 0000 000000
2015-12-12 01:15:23,0.10,2.95,0.00,21.20,25.59,29.30,14.54,50.19,1008.37,2039.53,2509.23,2449.32,2737.23,599.62,594.48,12.73,0000 0000 0000 0000 000000
2015-12-12 01:20:24,0.10,2.96,0.00,21.19,25.60,29.31,14.54,50.30,1008.43,2039.25,2507.62,2447.93,2735.79,599.81,594.79,12.78,0000 0000 0000 0000 000000
2015-12-12 01:25:25,0.12,2.96,0.00,21.18,25.60,29.30,14.62,50.26,1008.49,2039.12,2505.83,2446.48,2734.33,599.89,594.82,12.83,0000 0000 0000 0000 000000
2015-12-12 01:30:27,0.11,2.97,0.00,21.19,25.60,29.31,14.57,50.20,1008.38,2039.10,2504.11,2445.22,2732.80,599.98,594.82,12.88,0000 0000 0000 0000 000000
2015-12-12 01:35:28,0.11,2.98,0.00,21.21,25.60,29.34,14.57,50.23,1008.39,2039.08,2502.50,2444.04,2731.54,599.77,594.60,12.93,0000 0000 0000 0000 000000
2015-12-12 01:40:29,0.13,2.98,0.00,21.21,25.61,29.31,14.54,50.14,1008.35,2039.03,2500.64,2442.69,2730.00,599.98,594.75,12.98,0000 0000 0000 0000 000000
2015-12-12 01:45:30,0.17,2.99,0.00,21.22,25.62,29.33,14.55,50.11,1008.33,2039.05,2498.30,2441.02,2728.12,599.94,594.76,13.03,0000 0000 0000 0000 000000
2015-12-12 01:50:32,0.18,3.00,0.00,21.25,25.62,29.33,14.59,50.19,1008.33,2039.06,2495.79,2439.05,2725.85,600.04,594.73,13.08,0000 0000 0000 0000 000000
2015-12-12 01:55:33,0.17,3.01,0.00,21.25,25.62,29.36,14.60,50.13,1008.43,2039.04,2493.38,2437.21,2723.71,600.01,594.76,13.13,0000 0000 0000 0000 000000
2015-12-12 02:00:34,0.18,3.02,0.00,21.26,25.62,29.37,14.57,50.27,1008.42,2039.02,2490.89,2435.57,2721.47,599.79,594.51,13.18,0000 0000 0000 0000 000000
2015-12-12 02:05:35,0.18,3.03,0.00,21.27,25.62,29.34,14.61,50.27,1008.35,2039.04,2488.28,2433.68,2719.36,600.59,595.22,13.23,0000 0000 0000 0000 000000
2015-12-12 02:10:37,0.20,3.04,0.00,21.26,25.62,29.34,14.54,50.33,1008.32,2039.03,2485.46,2431.63,2717.09,600.13,594.78,13.28,0000 0000 0000 0000 000000
2015-12-12 02:15:38,0.19,3.05,0.00,21.25,25.62,29.32,14.61,50.38,1008.32,2039.01,2482.56,2429.53,2714.81,600.13,594.71,13.33,0000 0000 0000 0000 000000
2015-12-12 02:20:39,0.16,3.06,0.00,21.27,25.62,29.34,14.58,50.38,1008.32,2039.00,2480.29,2427.77,2712.81,599.99,594.62,13.39,0000 0000 0000 0000 000000
2015-12-12 02:25:41,0.13,3.07,0.00,21.25,25.62,29.32,14.62,50.50,1008.32,2039.01,2478.17,2426.31,2711.18,599.92,594.63,13.44,0000 0000 0000 0000 000000
2015-12-12 02:30:43,0.14,3.07,0.00,21.28,25.63,29.35,14.60,50.52,1008.32,2039.01,2476.35,2424.88,2709.61,599.76,594.47,13.49,0000 0000 0000 0000 000000
2015-12-12 02:35:44,0.14,3.08,0.00,21.30,25.64,29.39,14.61,50.49,1008.32,2039.00,2474.41,2423.49,2707.99,600.09,594.83,13.54,0000 0000 0000 0000 000000
2015-12-12 02:40:45,0.15,3.09,0.00,21.28,25.65,29.39,14.60,50.51,1008.31,2039.00,2472.22,2421.95,2706.33,599.93,594.56,13.59,0000 0000 0000 0000 000000
2015-12-12 02:45:46,0.18,3.09,0.00,21.29,25.65,29.33,14.50,50.46,1008.31,2039.00,2469.58,2420.15,2704.31,599.86,594.45,13.64,0000 0000 0000 0000 000000
2015-12-12 02:50:47,0.21,3.10,0.00,21.30,25.65,29.32,14.57,50.40,1008.31,2039.00,2466.66,2418.19,2702.14,599.85,594.43,13.69,0000 0000 0000 0000 000000
2015-12-12 02:55:48,0.20,3.11,0.00,21.30,25.65,29.36,14.62,50.50,1008.31,2039.00,2463.65,2416.19,2699.90,600.22,594.78,13.74,0000 0000 0000 0000 000000
2015-12-12 03:00:49,0.30,3.13,0.00,21.30,25.65,29.33,14.58,50.48,1008.31,2039.00,2459.80,2413.38,2696.78,599.80,594.37,13.79,0000 0000 0000 0000 000000
2015-12-12 03:05:50,0.24,3.14,0.00,21.32,25.66,29.37,14.61,50.58,1008.30,2039.00,2456.01,2410.63,2693.75,599.99,594.46,13.84,0000 0000 0000 0000 000000
2015-12-12 03:10:52,0.19,3.15,0.00,21.31,25.67,29.40,14.54,50.54,1008.31,2039.00,2453.28,2408.55,2691.56,599.87,594.39,13.89,0000 0000 0000 0000 000000
2015-12-12 03:15:53,0.13,3.16,0.00,21.31,25.67,29.37,14.59,50.61,1008.31,2038.99,2451.31,2407.09,2689.89,600.00,594.69,13.94,0000 0000 0000 0000 000000
2015-12-12 03:20:54,0.16,3.17,0.00,21.32,25.67,29.41,14.52,50.63,1008.31,2038.98,2449.13,2405.55,2688.25,600.01,594.52,13.99,0000 0000 0000 0000 000000
2015-12-12 03:25:56,0.17,3.18,0.00,21.32,25.67,29.42,14.66,50.68,1008.31,2038.99,2446.80,2403.90,2686.52,600.22,594.76,14.04,0000 0000 0000 0000 000000
2015-12-12 03:30:57,0.16,3.18,0.00,21.32,25.68,29.41,14.62,50.67,1008.31,2038.99,2444.38,2402.24,2684.52,600.19,594.73,14.09,0000 0000 0000 0000 000000
2015-12-12 03:35:58,0.23,3.19,0.00,21.32,25.69,29.42,14.58,50.58,1008.20,2038.98,2441.37,2400.19,2682.23,600.02,594.52,14.14,0000 0000 0000 0000 000000
2015-12-12 03:40:59,0.32,3.21,0.00,21.34,25.69,29.37,14.60,50.65,1008.15,2038.97,2436.99,2397.17,2678.96,599.91,594.42,14.19,0000 0000 0000 0000 000000
2015-12-12 03:46:00,0.32,3.23,0.00,21.31,25.70,29.38,14.54,50.67,1008.19,2038.96,2432.23,2393.88,2675.35,599.89,594.40,14.24,0000 0000 0000 0000 000000
2015-12-12 03:51:01,0.24,3.24,0.00,21.33,25.70,29.43,14.58,50.65,1008.20,2038.96,2428.63,2391.35,2672.57,600.13,594.58,14.29,0000 0000 0000 0000 000000
2015-12-12 03:56:02,0.23,3.25,0.00,21.34,25.70,29.39,14.60,50.70,1008.30,2038.97,2425.42,2389.12,2670.13,600.03,594.48,14.34,0000 0000 0000 0000 000000
2015-12-12 04:01:04,0.21,3.26,0.00,21.34,25.70,29.44,14.55,50.67,1008.27,2038.95,2422.44,2387.03,2667.82,599.96,594.43,14.39,0000 0000 0000 0000 000000
2015-12-12 04:06:05,0.21,3.27,0.00,21.33,25.70,29.44,14.52,50.62,1008.19,2038.87,2419.31,2384.85,2665.36,600.23,594.66,14.44,0000 0000 0000 0000 000000
2015-12-12 04:11:06,0.20,3.28,0.00,21.33,25.70,29.43,14.61,50.76,1008.31,2038.88,2416.47,2382.82,2663.14,600.05,594.57,14.49,0000 0000 0000 0000 000000
2015-12-12 04:16:07,0.19,3.29,0.00,21.34,25.70,29.38,14.57,50.59,1008.31,2038.92,2413.78,2380.96,2661.02,600.03,594.57,14.54,0000 0000 0000 0000 000000
2015-12-12 04:21:08,0.13,3.30,0.00,21.35,25.70,29.41,14.57,50.57,1008.32,2038.85,2411.59,2379.45,2659.28,599.82,594.32,14.59,0000 0000 0000 0000 000000
2015-12-12 04:26:09,0.16,3.31,0.00,21.37,25.70,29.48,14.61,50.53,1008.33,2038.88,2409.53,2377.94,2657.65,600.10,594.51,14.64,0000 0000 0000 0000 000000
2015-12-12 04:31:11,0.12,3.31,0.00,21.36,25.71,29.43,14.63,50.58,1008.35,2038.65,2407.64,2376.57,2656.04,600.12,594.59,14.69,0000 0000 0000 0000 000000
2015-12-12 04:36:12,0.09,3.32,0.00,21.35,25.72,29.42,14.65,50.67,1008.34,2038.51,2405.85,2375.39,2654.61,600.42,594.95,14.74,0000 0000 0000 0000 000000
2015-12-12 04:41:13,0.12,3.33,0.00,21.34,25.72,29.44,14.62,50.55,1008.36,2038.24,2403.92,2373.96,2653.01,600.01,594.45,14.79,0000 0000 0000 0000 000000
2015-12-12 04:46:14,0.15,3.33,0.00,21.32,25.72,29.41,14.57,50.58,1008.37,2038.26,2402.10,2372.54,2651.52,600.18,594.73,14.84,0000 0000 0000 0000 000000
2015-12-12 04:51:16,0.12,3.34,0.00,21.35,25.72,29.40,14.60,50.59,1008.38,2038.13,2400.20,2371.19,2650.03,600.04,594.56,14.89,0000 0000 0000 0000 000000
2015-12-12 04:56:17,0.37,3.35,0.00,21.37,25.72,29.42,14.49,50.55,1008.38,2038.08,2395.83,2368.19,2646.65,599.73,594.21,14.94,0000 0000 0000 0000 000000
2015-12-12 05:01:19,0.25,3.37,0.00,21.37,25.72,29.42,14.52,50.52,1008.39,2038.07,2391.61,2365.34,2643.36,599.60,593.91,14.99,0000 0000 0000 0000 000000
2015-12-12 05:06:20,0.39,3.39,0.00,21.36,25.73,29.44,14.59,50.52,1008.38,2038.04,2386.75,2361.94,2639.64,600.13,594.56,15.04,0000 0000 0000 0000 000000
2015-12-12 05:11:21,0.24,3.40,0.00,21.38,25.74,29.47,14.56,50.59,1008.35,2038.02,2382.90,2359.20,2636.63,600.18,594.62,15.09,0000 0000 0000 0000 000000
2015-12-12 05:16:23,0.17,3.41,0.00,21.37,25.73,29.48,14.44,50.53,1008.36,2038.01,2380.49,2357.57,2634.71,599.51,594.03,15.14,0000 0000 0000 0000 000000
2015-12-12 05:21:24,0.15,3.42,0.00,21.37,25.74,29.44,14.61,50.60,1008.37,2038.01,2378.28,2356.00,2633.02,599.93,594.43,15.19,0000 0000 0000 0000 000000
2015-12-12 05:26:25,0.14,3.43,0.00,21.36,25.74,29.45,14.57,50.33,1008.38,2038.01,2376.33,2354.63,2631.47,599.89,594.39,15.24,0000 0000 0000 0000 000000
2015-12-12 05:31:27,0.13,3.43,0.00,21.39,25.75,29.44,14.58,50.33,1008.48,2038.02,2374.42,2353.38,2629.92,600.26,594.76,15.29,0000 0000 0000 0000 000000
2015-12-12 05:36:28,0.12,3.44,0.00,21.40,25.75,29.44,14.63,50.32,1008.65,2038.01,2372.72,2352.38,2628.59,600.08,594.72,15.34,0000 0000 0000 0000 000000
2015-12-12 05:41:29,0.11,3.45,0.00,21.41,25.75,29.46,14.56,50.35,1008.63,2038.00,2370.88,2351.37,2627.23,600.08,594.57,15.39,0000 0000 0000 0000 000000
2015-12-12 05:46:31,0.11,3.45,0.00,21.42,25.75,29.44,14.58,50.40,1008.64,2038.01,2369.30,2350.21,2625.84,599.74,594.27,15.44,0000 0000 0000 0000 000000
2015-12-12 05:51:32,0.11,3.46,0.00,21.40,25.75,29.49,14.52,50.45,1008.71,2038.01,2367.69,2349.15,2624.61,599.80,594.41,15.49,0000 0000 0000 0000 000000
2015-12-12 05:56:33,0.10,3.46,0.00,21.41,25.75,29.46,14.60,50.52,1008.72,2038.01,2366.40,2348.08,2623.45,600.00,594.58,15.54,0000 0000 0000 0000 000000
2015-12-12 06:01:35,0.10,3.47,0.00,21.42,25.76,29.48,14.58,50.67,1008.56,2038.00,2364.86,2347.04,2622.47,600.14,594.63,15.59,0000 0000 0000 0000 000000
2015-12-12 06:06:36,0.11,3.48,0.00,21.42,25.77,29.50,14.61,50.52,1008.48,2038.00,2363.31,2345.93,2621.18,600.17,594.59,15.64,0000 0000 0000 0000 000000
2015-12-12 06:11:37,0.13,3.48,0.00,21.44,25.77,29.48,14.58,50.61,1008.50,2038.00,2361.62,2344.79,2619.92,600.04,594.44,15.70,0000 0000 0000 0000 000000
2015-12-12 06:16:39,0.10,3.49,0.00,21.44,25.78,29.49,14.53,50.48,1008.40,2038.00,2360.18,2343.73,2618.70,600.08,594.42,15.75,0000 0000 0000 0000 000000
2015-12-12 06:21:40,0.11,3.49,0.00,21.44,25.80,29.49,14.56,50.18,1008.36,2038.00,2358.64,2342.70,2617.50,599.87,594.08,15.80,0000 0000 0000 0000 000000
2015-12-12 06:26:41,0.11,3.50,0.00,21.42,25.80,29.48,14.52,50.05,1008.48,2038.00,2357.09,2341.62,2616.21,599.95,594.38,15.85,0000 0000 0000 0000 000000
2015-12-12 06:31:43,0.12,3.50,0.00,21.43,25.81,29.54,14.66,50.30,1008.55,2038.00,2355.55,2340.50,2614.92,600.19,594.64,15.90,0000 0000 0000 0000 000000
2015-12-12 06:36:44,0.13,3.51,0.00,21.43,25.82,29.50,14.56,50.27,1008.46,2037.99,2353.79,2339.27,2613.51,600.07,594.51,15.95,0000 0000 0000 0000 000000
2015-12-12 06:41:45,0.14,3.52,0.00,21.44,25.82,29.55,14.54,50.33,1008.41,2037.99,2351.89,2337.87,2612.00,599.95,594.33,16.00,0000 0000 0000 0000 000000
2015-12-12 06:46:46,0.14,3.52,0.00,21.48,25.84,29.56,14.53,50.39,1008.39,2037.99,2350.10,2336.58,2610.52,599.44,593.79,16.05,0000 0000 0000 0000 000000
2015-12-12 06:51:48,0.13,3.53,0.00,21.47,25.85,29.61,14.58,50.42,1008.35,2037.98,2348.21,2335.27,2608.95,600.11,594.38,16.10,0000 0000 0000 0000 000000
2015-12-12 06:56:49,0.16,3.54,0.00,21.48,25.85,29.57,14.54,50.42,1008.35,2037.96,2346.26,2333.70,2607.31,600.06,594.38,16.15,0000 0000 0000 0000 000000
2015-12-12 07:01:50,0.13,3.55,0.00,21.49,25.85,29.56,14.48,50.23,1008.35,2037.95,2344.38,2332.32,2605.68,600.02,594.20,16.20,0000 0000 0000 0000 000000
2015-12-12 07:06:51,0.14,3.55,0.00,21.50,25.87,29.59,14.56,50.40,1008.55,2037.94,2342.54,2330.98,2604.08,599.70,594.01,16.25,0000 0000 0000 0000 000000
2015-12-12 07:11:53,0.15,3.56,0.00,21.50,25.87,29.55,14.59,50.40,1008.76,2037.96,2340.69,2329.65,2602.63,600.17,594.55,16.30,0000 0000 0000 0000 000000
2015-12-12 07:16:54,0.12,3.57,0.00,21.49,25.87,29.58,14.59,50.39,1008.72,2037.88,2338.77,2328.32,2600.99,600.43,594.85,16.35,0000 0000 0000 0000 000000
2015-12-12 07:21:56,0.15,3.58,0.00,21.49,25.87,29.60,14.63,50.42,1008.46,2037.71,2336.71,2326.74,2599.40,600.24,594.51,16.40,0000 0000 0000 0000 000000
2015-12-12 07:26:57,0.15,3.58,0.00,21.48,25.87,29.57,14.59,50.43,1008.45,2037.52,2334.43,2325.14,2597.55,600.20,594.42,16.45,0000 0000 0000 0000 000000
2015-12-12 07:31:58,0.26,3.59,0.00,21.49,25.87,29.57,14.53,50.31,1008.58,2037.62,2331.43,2322.98,2595.19,599.84,594.09,16.50,0000 0000 0000 0000 000000
2015-12-12 07:36:59,0.31,3.61,0.00,21.49,25.87,29.58,14.55,50.33,1008.59,2037.72,2327.81,2320.35,2592.34,599.95,594.21,16.55,0000 0000 0000 0000 000000
2015-12-12 07:42:00,0.27,3.62,0.00,21.46,25.87,29.60,14.54,50.24,1008.43,2037.53,2323.91,2317.51,2589.29,599.94,594.27,16.60,0000 0000 0000 0000 000000
2015-12-12 07:47:02,0.22,3.64,0.00,21.45,25.87,29.58,14.55,50.39,1008.45,2037.29,2320.27,2314.88,2586.39,599.82,594.23,16.65,0000 0000 0000 0000 000000
2015-12-12 07:52:03,0.21,3.65,0.00,21.47,25.87,29.57,14.58,50.42,1008.48,2037.31,2317.55,2312.94,2584.25,599.80,594.07,16.70,0000 0000 0000 0000 000000
2015-12-12 07:57:04,0.19,3.66,0.00,21.46,25.87,29.58,14.55,50.37,1008.59,2037.29,2314.96,2311.14,2582.16,599.92,594.29,16.75,0000 0000 0000 0000 000000
2015-12-12 08:02:06,0.19,3.67,0.00,21.47,25.87,29.57,14.53,50.34,1008.72,2037.34,2312.42,2309.38,2580.19,599.86,594.31,16.80,0000 0000 0000 0000 000000
2015-12-12 08:07:07,0.18,3.68,0.00,21.48,25.85,29.55,14.61,50.55,1008.77,2037.16,2309.81,2307.55,2578.12,600.04,594.50,16.85,0000 0000 0000 0000 000000
2015-12-12 08:12:09,0.19,3.69,0.00,21.47,25.85,29.58,14.56,50.42,1008.80,2037.15,2307.37,2305.80,2576.22,599.87,594.33,16.90,0000 0000 0000 0000 000000
2015-12-12 08:17:10,0.16,3.69,0.00,21.47,25.85,29.56,14.61,50.53,1008.80,2037.14,2305.18,2304.26,2574.37,600.19,594.71,16.95,0000 0000 0000 0000 000000
2015-12-12 08:22:12,0.19,3.70,0.00,21.46,25.85,29.56,14.56,50.52,1008.80,2037.14,2302.80,2302.53,2572.37,600.08,594.66,17.00,0000 0000 0000 0000 000000
2015-12-12 08:27:13,0.20,3.71,0.00,21.47,25.85,29.58,14.55,50.39,1008.80,2037.22,2300.32,2300.68,2570.31,600.03,594.55,17.05,0000 0000 0000 0000 000000
2015-12-12 08:32:14,0.23,3.72,0.00,21.45,25.85,29.52,14.64,50.58,1008.81,2037.26,2297.66,2298.70,2568.13,600.11,594.58,17.10,0000 0000 0000 0000 000000
2015-12-12 08:37:15,0.21,3.74,0.00,21.44,25.83,29.57,14.61,50.67,1008.81,2037.25,2295.03,2296.67,2565.87,599.71,594.30,17.15,0000 0000 0000 0000 000000
2015-12-12 08:42:16,0.14,3.74,0.00,21.46,25.82,29.52,14.55,50.48,1008.83,2037.24,2292.97,2295.25,2564.21,599.92,594.40,17.20,0000 0000 0000 0000 000000
2015-12-12 08:47:17,0.14,3.75,0.00,21.45,25.82,29.52,14.62,50.58,1008.83,2037.19,2291.02,2293.85,2562.65,600.25,594.84,17.25,0000 0000 0000 0000 000000
2015-12-12 08:52:18,0.16,3.76,0.00,21.43,25.82,29.52,14.63,50.52,1008.84,2037.12,2288.95,2292.33,2561.02,600.17,594.79,17.30,0000 0000 0000 0000 000000
2015-12-12 08:57:20,0.22,3.77,0.00,21.43,25.82,29.54,14.58,50.58,1008.87,2037.19,2286.28,2290.45,2559.02,599.88,594.58,17.35,0000 0000 0000 0000 000000
2015-12-12 09:02:21,0.20,3.78,0.00,21.44,25.82,29.49,14.56,50.58,1009.09,2037.32,2283.78,2288.72,2557.22,600.04,594.79,17.40,0000 0000 0000 0000 000000
2015-12-12 09:07:22,0.18,3.79,0.00,21.44,25.80,29.52,14.53,50.59,1009.21,2037.32,2281.29,2287.04,2555.37,599.78,594.61,17.45,0000 0000 0000 0000 000000
2015-12-12 09:12:24,0.22,3.80,0.00,21.42,25.80,29.55,14.59,50.43,1009.23,2037.56,2278.81,2285.39,2553.45,599.83,594.68,17.50,0000 0000 0000 0000 000000
2015-12-12 09:17:25,0.19,3.81,0.00,21.42,25.80,29.52,14.58,50.58,1009.29,2037.37,2276.14,2283.52,2551.36,600.28,595.19,17.55,0000 0000 0000 0000 000000
2015-12-12 09:22:26,0.24,3.82,0.00,21.43,25.80,29.51,14.55,50.55,1009.29,2037.61,2273.43,2281.60,2549.14,599.95,594.84,17.60,0000 0000 0000 0000 000000
2015-12-12 09:27:28,0.19,3.83,0.00,21.46,25.80,29.48,14.56,50.58,1009.29,2037.66,2271.07,2279.86,2547.25,599.77,594.64,17.65,0000 0000 0000 0000 000000
2015-12-12 09:32:29,0.18,3.84,0.00,21.46,25.80,29.49,14.59,50.63,1009.29,2037.73,2268.65,2278.19,2545.40,600.21,594.98,17.70,0000 0000 0000 0000 000000
2015-12-12 09:37:31,0.19,3.85,0.00,21.44,25.80,29.51,14.58,50.64,1009.29,2037.71,2266.18,2276.53,2543.53,600.03,594.91,17.75,0000 0000 0000 0000 000000
2015-12-12 09:42:32,0.22,3.86,0.00,21.43,25.80,29.48,14.54,50.63,1009.29,2037.69,2263.52,2274.71,2541.37,599.62,594.54,17.80,0000 0000 0000 0000 000000
2015-12-12 09:47:33,0.21,3.87,0.00,21.44,25.80,29.51,14.59,50.66,1009.29,2037.48,2260.62,2272.62,2539.03,600.05,594.99,17.85,0000 0000 0000 0000 000000
2015-12-12 09:52:35,0.24,3.89,0.00,21.46,25.80,29.55,14.56,50.58,1009.29,2037.36,2257.26,2270.28,2536.43,600.27,595.03,17.90,0000 0000 0000 0000 000000
2015-12-12 09:57:36,0.28,3.90,0.00,21.49,25.80,29.51,14.66,50.73,1009.29,2037.43,2253.85,2267.95,2533.90,600.52,595.28,17.95,0000 0000 0000 0000 000000
2015-12-12 10:02:37,0.23,3.91,0.00,21.49,25.80,29.53,14.59,50.64,1009.29,2037.48,2250.74,2265.74,2531.46,599.98,594.78,18.00,0000 0000 0000 0000 000000
2015-12-12 10:07:39,0.25,3.92,0.00,21.50,25.82,29.58,14.62,50.77,1009.29,2037.37,2247.67,2263.52,2528.97,600.43,595.01,18.05,0000 0000 0000 0000 000000
2015-12-12 10:12:40,0.20,3.94,0.00,21.50,25.82,29.54,14.66,50.76,1009.30,2037.18,2244.66,2261.33,2526.49,599.98,594.66,18.10,0000 0000 0000 0000 000000
2015-12-12 10:17:41,0.21,3.95,0.00,21.51,25.82,29.55,14.60,50.81,1009.30,2037.16,2241.98,2259.43,2524.31,599.82,594.60,18.15,0000 0000 0000 0000 000000
2015-12-12 10:22:42,0.24,3.96,0.00,21.50,25.82,29.59,14.50,50.77,1009.33,2037.15,2239.15,2257.35,2522.02,599.79,594.48,18.20,0000 0000 0000 0000 000000
2015-12-12 10:27:43,0.19,3.97,0.00,21.50,25.84,29.56,14.56,50.77,1009.33,2037.16,2236.64,2255.52,2519.91,600.12,594.93,18.25,0000 0000 0000 0000 000000
2015-12-12 10:32:45,0.12,3.98,0.00,21.54,25.85,29.56,14.63,50.77,1009.32,2037.11,2234.84,2254.25,2518.44,600.08,594.80,18.30,0000 0000 0000 0000 000000
2015-12-12 10:37:46,0.14,3.98,0.00,21.54,25.85,29.57,14.53,50.70,1009.32,2037.05,2233.15,2252.88,2516.94,599.79,594.43,18.35,0000 0000 0000 0000 000000
2015-12-12 10:42:47,0.15,3.99,0.00,21.52,25.85,29.58,14.59,50.68,1009.41,2037.04,2231.43,2251.53,2515.45,599.96,594.75,18.40,0000 0000 0000 0000 000000
2015-12-12 10:47:49,0.13,4.00,0.00,21.50,25.85,29.55,14.64,50.88,1009.45,2037.02,2229.63,2250.23,2513.91,600.10,594.88,18.45,0000 0000 0000 0000 000000
2015-12-12 10:52:50,0.15,4.00,0.00,21.50,25.85,29.59,14.61,50.71,1009.56,2037.01,2227.87,2248.93,2512.50,599.91,594.79,18.50,0000 0000 0000 0000 000000
2015-12-12 10:57:51,0.16,4.01,0.00,21.50,25.85,29.55,14.65,50.73,1009.49,2037.01,2226.03,2247.62,2510.98,600.25,595.17,18.55,0000 0000 0000 0000 000000
2015-12-12 11:02:52,0.17,4.02,0.00,21.51,25.85,29.60,14.63,50.83,1009.35,2037.01,2223.91,2246.08,2509.28,600.01,594.78,18.60,0000 0000 0000 0000 000000
2015-12-12 11:07:53,0.18,4.03,0.00,21.52,25.85,29.56,14.47,50.67,1009.40,2037.01,2221.51,2244.42,2507.38,599.47,594.19,18.65,0000 0000 0000 0000 000000
2015-12-12 11:12:55,0.20,4.04,0.00,21.52,25.85,29.57,14.63,50.72,1009.56,2037.00,2219.05,2242.65,2505.38,600.01,594.89,18.71,0000 0000 0000 0000 000000
2015-12-12 11:17:56,0.16,4.05,0.00,21.52,25.85,29.58,14.57,50.82,1009.74,2037.01,2216.76,2241.02,2503.62,600.07,595.05,18.75,0000 0000 0000 0000 000000
2015-12-12 11:22:57,0.11,4.06,0.00,21.52,25.86,29.57,14.54,50.73,1009.74,2037.00,2215.40,2239.92,2502.26,600.00,594.96,18.81,0000 0000 0000 0000 000000
2015-12-12 11:27:59,0.10,4.06,0.00,21.50,25.87,29.55,14.65,50.75,1009.75,2037.00,2214.13,2239.04,2501.07,599.99,595.03,18.86,0000 0000 0000 0000 000000
2015-12-12 11:33:00,0.11,4.07,0.00,21.50,25.87,29.58,14.60,50.89,1009.78,2037.00,2212.81,2238.15,2499.91,599.87,594.91,18.91,0000 0000 0000 0000 000000
2015-12-12 11:38:01,0.12,4.07,0.00,21.51,25.87,29.56,14.62,50.78,1009.78,2037.00,2211.48,2237.20,2498.74,600.23,595.21,18.96,0000 0000 0000 0000 000000
2015-12-12 11:43:02,0.10,4.08,0.00,21.49,25.86,29.59,14.60,50.77,1009.78,2036.99,2210.09,2236.14,2497.59,600.05,595.04,19.01,0000 0000 0000 0000 000000
2015-12-12 11:48:04,0.13,4.08,0.00,21.48,25.85,29.57,14.61,50.66,1009.78,2036.99,2208.57,2234.93,2496.51,600.15,595.23,19.06,0000 0000 0000 0000 000000
2015-12-12 11:53:05,0.18,4.09,0.00,21.49,25.85,29.54,14.55,50.69,1009.79,2036.99,2206.60,2233.60,2494.98,599.95,595.04,19.11,0000 0000 0000 0000 000000
2015-12-12 11:58:06,0.14,4.10,0.00,21.48,25.84,29.56,14.59,50.81,1009.79,2036.99,2204.59,2232.19,2493.53,600.02,595.10,19.16,0000 0000 0000 0000 000000
2015-12-12 12:03:08,0.14,4.11,0.00,21.45,25.82,29.56,14.67,50.83,1009.80,2036.99,2202.77,2230.92,2492.08,600.19,595.43,19.21,0000 0000 0000 0000 000000
2015-12-12 12:08:09,0.17,4.12,0.00,21.45,25.82,29.52,14.63,50.77,1009.81,2036.99,2200.91,2229.53,2490.55,599.84,595.06,19.26,0000 0000 0000 0000 000000
2015-12-12 12:13:10,0.17,4.12,0.00,21.48,25.81,29.54,14.64,50.77,1009.82,2036.99,2198.86,2227.99,2488.78,600.12,595.24,19.31,0000 0000 0000 0000 000000
2015-12-12 12:18:11,0.17,4.13,0.00,21.48,25.80,29.49,14.65,50.82,1009.84,2036.99,2196.81,2226.55,2487.10,599.93,595.05,19.36,0000 0000 0000 0000 000000
2015-12-12 12:23:12,0.15,4.14,0.00,21.44,25.79,29.49,14.60,50.76,1009.88,2036.99,2194.93,2225.20,2485.62,599.93,595.14,19.41,0000 0000 0000 0000 000000
2015-12-12 12:28:14,0.16,4.15,0.00,21.45,25.78,29.52,14.52,50.68,1009.83,2037.00,2192.94,2223.74,2484.12,599.48,594.65,19.46,0000 0000 0000 0000 000000
2015-12-12 12:33:15,0.15,4.16,0.00,21.43,25.77,29.49,14.67,50.59,1009.82,2037.03,2191.10,2222.51,2482.65,599.99,595.20,19.51,0000 0000 0000 0000 000000
2015-12-12 12:38:16,0.15,4.17,0.00,21.44,25.77,29.51,14.53,50.72,1009.84,2037.03,2189.08,2221.15,2481.15,599.78,594.96,19.56,0000 0000 0000 0000 000000
2015-12-12 12:43:17,0.16,4.17,0.00,21.45,25.77,29.52,14.55,50.64,1009.88,2037.05,2187.37,2219.79,2479.67,599.92,595.08,19.61,0000 0000 0000 0000 000000
2015-12-12 12:48:18,0.15,4.18,0.00,21.43,25.77,29.49,14.61,50.78,1009.99,2037.03,2185.47,2218.45,2478.07,599.94,595.35,19.66,0000 0000 0000 0000 000000
2015-12-12 12:53:20,0.18,4.19,0.00,21.43,25.78,29.51,14.56,50.73,1009.88,2037.03,2183.47,2216.86,2476.36,599.87,595.19,19.71,0000 0000 0000 0000 000000